Location: Sungai Laei
(2.6000°N, 113.7167°E)
Time: 09:51:52
(UTC+00:00)

Ariane H10-3 - Pass Details

Date: 22 May 2022
Orbit: 331 x 24047 km, 7.7° (Epoch: 06 July)

Event Time Altitude Azimuth Distance (km) Brightness Sun altitude
Rises 12:00:24 0° 279° (W) 4,155 8.1 -22.0°
Reaches altitude 10° 12:04:26 10° 282° (WNW) 2,078 6.3 -22.9°
Enters shadow 12:07:26 43° 304° (WNW) 585 2.9 -23.6°
